Wind_Speed
4 1 6 8 6 2 3 2 3 3 4 2 6 8 5 14 11 11 16 21 34 39 36 34 34 35 37 35 38 34 33 31 31 31 33 33 34 31 30 29 26 24 24 22
3 7 10 2 3 1 1 1 5 5 8 5 0 9 3 6 7 13 13 15 26 33 32 32 33 36 38 36 40 37 36 34 34 34 33 35 32 32 31 30 31 26 25 27
6 3 5 5 4 5 4 4 4 6 2 2 2 7 6 2 5 13 18 21 17 26 27 26 24 32 37 38 40 40 38 35 35 35 36 35 32 31 38 36 36 35 30 29
4 3 6 5 8 9 4 8 9 6 6 3 3 4 5 5 7 6 23 26 30 28 25 31 29 25 37 41 39 39 39 35 32 39 39 39 38 36 37 45 44 38 34 33
4 5 6 4 4 8 11 4 11 4 2 4 0 2 7 3 6 11 17 28 33 33 28 31 33 33 32 41 41 40 40 39 37 37 43 40 38 35 33 33 40 45 40 38
6 3 2 6 2 7 5 4 7 4 4 1 7 6 6 5 8 6 9 23 22 21 26 28 29 32 32 37 43 43 41 41 43 42 40 41 37 33 34 33 35 41 44 44
6 4 4 6 4 4 5 6 3 4 4 5 2 3 9 6 8 9 10 13 12 14 18 22 27 31 33 37 40 45 42 44 46 48 43 41 38 35 35 34 37 39 44 44
1 6 1 2 5 5 2 5 5 3 2 5 1 5 6 6 12 24 21 17 15 14 14 17 20 24 25 29 34 38 42 45 47 51 46 42 39 37 36 35 35 41 40 31
4 5 6 3 5 6 1 3 4 5 2 2 3 7 7 3 4 8 11 21 22 16 13 13 12 14 16 24 31 36 37 40 43 49 45 42 41 39 38 37 34 36 34 28
3 2 3 7 5 2 4 4 2 4 1 3 5 5 5 6 9 7 8 22 18 16 12 10 7 3 5 9 17 27 31 33 34 37 38 42 41 40 40 38 35 38 31 16
4 3 7 3 3 3 5 3 7 5 4 5 1 6 5 9 10 11 5 21 22 18 15 10 8 8 9 11 15 20 26 28 29 31 35 34 35 34 39 43 41 43 44 42
2 5 3 8 3 5 3 3 4 5 6 2 5 6 6 8 7 12 13 23 21 19 15 12 9 9 8 9 14 18 19 23 24 28 29 28 28 30 34 37 23 20 40 42
7 0 3 10 7 5 3 2 5 4 3 4 4 6 5 4 6 16 23 24 21 18 16 14 13 11 9 10 11 13 14 16 18 25 31 29 23 23 29 32 29 26 23 33
9 3 6 6 8 2 4 3 2 5 2 3 6 6 4 4 7 10 21 24 22 20 20 17 15 13 12 10 11 13 13 15 18 20 21 22 19 19 26 27 31 21 22 31
4 3 3 5 6 3 5 8 3 5 6 5 9 7 8 11 10 21 26 23 22 20 20 20 17 16 14 13 15 15 14 15 17 17 15 16 14 14 22 20 22 18 23 27
3 1 5 4 6 5 6 9 9 6 5 6 6 9 8 16 18 18 22 19 18 21 21 20 19 17 16 17 18 16 16 16 16 17 14 7 8 11 13 18 17 15 18 28
2 6 3 6 2 3 7 7 7 6 5 5 5 9 6 6 7 12 15 17 19 17 17 19 18 15 15 17 17 17 16 16 17 17 11 9 6 13 7 13 11 13 21 24
6 5 4 4 3 5 9 5 8 8 6 7 5 6 14 14 20 17 16 17 15 14 14 14 14 15 17 18 19 18 16 16 17 16 12 7 10 12 13 13 13 16 17 16
5 4 2 2 3 6 8 8 6 8 9 7 6 3 8 11 10 9 15 16 15 14 13 13 13 14 15 16 17 19 17 15 16 14 11 7 11 12 15 14 16 17 11 13
5 4 4 3 3 5 7 8 16 3 6 6 11 9 10 14 4 7 23 22 20 16 15 13 12 14 16 17 15 18 18 16 15 12 10 7 8 11 15 15 14 17 17 16
4 3 2 2 5 7 4 14 6 3 8 5 15 19 21 7 21 14 13 23 20 17 17 16 15 16 16 15 16 17 17 18 13 12 10 9 8 7 10 13 13 13 12 12
5 2 2 1 2 5 12 14 3 6 8 16 21 24 27 29 17 14 12 15 18 20 20 20 18 17 15 16 17 17 21 15 15 13 11 10 8 10 9 11 12 14 16 15
1 6 4 7 5 9 14 8 16 16 7 9 14 15 15 11 10 12 15 18 22 24 23 20 18 16 17 18 20 20 17 17 17 16 12 11 10 11 13 14 14 17 17 15
2 2 1 3 5 7 18 23 19 13 9 6 6 8 8 10 11 13 16 16 14 17 22 23 24 21 20 21 20 20 18 16 17 17 14 14 14 14 15 16 15 15 16 16
4 2 2 5 9 15 14 27 23 19 13 14 14 14 14 15 17 18 19 17 18 19 20 26 29 25 23 22 21 20 17 18 18 18 17 16 16 18 18 16 16 16 17 18
3 4 1 5 20 14 17 28 23 18 19 19 17 16 16 17 19 19 19 20 22 25 26 25 25 28 27 23 22 20 18 17 19 21 20 20 18 19 20 18 19 19 18 18
Wind_Direction
186 333 236 225 199 153 132 168 256 260 211 169 235 259 207 205 210 214 222 225 223 227 232 231 232 231 228 228 223 224 222 220 216 216 213 215 216 218 218 215 216 221 222 222
27 239 243 203 228 242 192 45 287 268 220 192 272 288 253 207 238 230 234 253 238 233 231 237 238 235 230 228 224 227 226 225 224 226 224 218 224 230 228 226 222 221 224 227
175 244 178 192 227 243 217 182 228 219 142 36 106 322 317 316 239 249 255 255 260 249 235 233 240 237 229 229 225 225 228 232 233 233 226 224 232 237 231 227 226 226 225 222
222 274 250 243 239 185 278 227 209 163 136 206 128 268 279 286 285 250 256 259 260 263 253 240 241 239 231 230 229 228 229 232 238 234 230 233 238 238 235 232 231 226 230 231
254 202 215 282 214 140 228 195 186 182 113 100 236 63 269 63 274 262 269 262 260 263 256 240 237 238 242 233 235 235 233 236 237 237 236 240 241 246 247 245 237 228 229 234
263 288 263 221 201 195 254 100 57 63 81 357 208 157 275 200 207 262 248 254 254 252 250 245 241 244 244 241 238 239 239 241 238 240 240 241 245 245 243 242 234 230 230 231
318 262 267 215 298 339 72 58 357 356 13 224 316 143 241 232 211 214 229 220 226 231 246 253 247 242 247 245 245 243 243 245 245 241 241 242 247 248 244 243 236 231 231 234
187 335 277 96 190 203 348 146 148 231 241 277 61 233 252 248 221 202 215 207 205 211 218 233 243 248 249 252 250 250 251 249 248 245 244 246 246 252 248 246 242 239 244 252
157 276 295 259 219 127 242 260 174 109 50 57 252 292 322 53 155 214 177 196 199 196 213 222 239 256 264 258 257 254 253 259 255 249 248 250 251 252 248 243 249 246 248 252
188 331 261 293 41 356 173 161 28 12 117 287 293 284 235 234 223 230 188 183 181 179 176 167 165 185 246 255 264 267 274 273 268 263 255 258 257 260 251 248 243 240 236 267
134 104 290 18 13 243 353 7 49 114 117 170 230 266 222 238 200 206 191 181 179 174 172 178 201 222 230 245 256 264 271 276 275 267 273 268 268 262 258 256 242 235 235 242
191 136 251 220 243 343 257 101 114 109 280 195 161 272 321 258 171 181 179 174 175 178 180 193 222 226 234 256 254 260 267 274 277 280 280 280 274 269 262 251 237 257 232 235
180 265 7 346 354 360 47 356 107 105 73 226 142 263 343 343 141 179 165 169 176 184 194 212 221 227 245 266 275 280 273 277 282 280 281 282 279 267 254 248 226 316 256 202
133 136 147 191 220 205 314 303 125 130 120 226 228 273 283 256 174 166 173 181 190 202 213 224 229 238 253 272 284 283 280 286 301 299 287 281 272 259 258 252 224 268 222 222
95 180 164 251 233 223 245 252 225 206 223 182 264 210 244 209 196 185 185 194 206 216 227 231 240 250 260 284 288 287 290 296 309 307 296 284 262 247 258 251 251 226 216 206
17 248 172 279 290 223 267 273 273 248 222 241 264 271 217 203 190 194 200 210 224 231 239 239 246 252 264 280 281 282 291 301 313 313 302 278 238 232 230 225 249 247 229 214
131 142 125 247 301 322 307 232 237 246 239 186 212 242 152 194 208 205 204 215 224 231 236 241 246 257 275 283 278 273 288 299 310 313 298 272 248 228 218 232 235 232 228 219
162 150 147 239 45 283 252 258 231 229 242 215 247 226 184 191 200 200 199 192 198 214 231 237 248 263 285 286 279 268 278 287 305 309 304 249 242 234 225 211 231 221 231 221
150 136 159 174 203 287 311 284 203 184 252 207 210 188 172 165 166 218 206 214 229 239 247 261 264 281 286 288 283 264 272 279 294 300 301 257 220 218 219 212 219 227 234 217
85 86 117 97 189 243 247 306 323 116 301 214 180 177 158 143 160 241 218 222 232 247 255 274 281 276 280 288 273 263 265 268 279 284 283 276 232 221 222 218 211 224 230 225
354 11 174 190 229 279 251 307 326 48 260 194 195 182 175 185 211 254 238 233 241 257 269 284 266 273 288 285 271 267 263 268 275 270 265 270 239 214 208 214 208 202 206 205
181 164 266 80 276 295 343 343 348 264 268 206 198 201 202 215 252 267 282 263 259 261 267 271 261 273 279 287 269 275 271 271 255 258 256 256 228 206 202 186 180 181 179 179
256 178 200 172 221 276 334 277 319 313 273 256 241 238 244 271 293 300 293 289 275 267 264 265 275 277 271 272 269 274 272 258 250 245 246 235 214 213 207 196 183 178 183 192
265 160 181 30 292 293 314 327 297 293 264 246 242 234 244 262 275 280 280 282 304 291 273 277 277 269 274 272 273 277 264 256 247 239 239 228 223 214 211 207 205 196 202 211
215 16 218 267 291 313 337 331 318 278 259 268 264 259 263 266 266 274 285 286 293 291 282 273 271 272 273 281 270 270 259 246 245 237 235 229 228 219 218 213 215 217 213 223
215 198 182 257 285 271 276 317 312 309 279 285 282 269 270 280 291 297 293 299 306 298 300 287 273 267 271 276 268 270 252 250 254 245 236 229 227 225 223 223 224 227 227 233
Height
1517 1523 1524 1512 1511 1509 1513 1518 1521 1511 1505 1508 1508 1506 1507 1507 1506 1507 1508 1507 1505 1504 1505 1509 1510 1514 1518 1520 1523 1525 1528 1531 1534 1535 1537 1539 1540 1542 1544 1545 1548 1550 1551 1552
1523 1527 1506 1505 1506 1509 1513 1517 1519 1508 1501 1506 1507 1503 1499 1499 1499 1501 1503 1502 1503 1501 1504 1505 1507 1510 1513 1515 1517 1522 1523 1524 1526 1528 1530 1532 1534 1536 1538 1540 1542 1545 1547 1549
1521 1509 1502 1504 1507 1510 1512 1517 1515 1514 1503 1503 1505 1512 1503 1496 1498 1499 1498 1499 1498 1498 1502 1502 1502 1505 1510 1511 1513 1516 1517 1522 1522 1524 1525 1528 1531 1533 1534 1533 1535 1537 1541 1543
1510 1502 1501 1502 1505 1506 1522 1495 1498 1503 1513 1530 1507 1540 1510 1498 1498 1497 1493 1493 1492 1493 1497 1498 1500 1501 1503 1505 1509 1511 1514 1515 1517 1520 1522 1523 1522 1523 1523 1526 1528 1531 1534 1537
1507 1503 1504 1504 1496 1495 1502 1490 1496 1501 1514 1516 1519 1533 1511 1502 1502 1493 1486 1486 1487 1487 1490 1492 1494 1496 1498 1502 1504 1505 1509 1509 1510 1512 1514 1516 1517 1517 1518 1520 1522 1525 1527 1529
1500 1494 1495 1493 1487 1488 1484 1493 1502 1512 1522 1542 1517 1525 1516 1506 1495 1489 1484 1482 1482 1483 1483 1486 1489 1492 1494 1497 1498 1499 1501 1502 1504 1504 1506 1509 1509 1510 1512 1512 1514 1517 1519 1521
1506 1496 1489 1487 1491 1486 1490 1509 1541 1538 1546 1542 1519 1523 1503 1486 1482 1481 1481 1480 1482 1483 1483 1483 1485 1487 1489 1491 1493 1495 1498 1497 1497 1498 1499 1501 1503 1504 1505 1508 1510 1510 1511 1513
1524 1521 1489 1484 1487 1493 1493 1506 1537 1543 1553 1542 1516 1522 1499 1478 1476 1476 1480 1482 1483 1483 1483 1484 1484 1485 1487 1489 1490 1491 1491 1491 1492 1493 1495 1496 1499 1501 1502 1504 1506 1507 1508 1512
1523 1515 1486 1482 1479 1483 1495 1508 1499 1526 1532 1541 1527 1506 1481 1475 1478 1478 1482 1483 1483 1483 1484 1484 1486 1487 1488 1488 1489 1489 1489 1488 1488 1489 1492 1493 1496 1495 1497 1499 1503 1504 1505 1508
1505 1520 1492 1485 1480 1482 1487 1490 1514 1528 1536 1536 1533 1520 1511 1485 1482 1479 1480 1481 1482 1483 1485 1486 1487 1489 1489 1489 1489 1487 1486 1485 1485 1486 1488 1488 1489 1491 1492 1493 1495 1496 1497 1499
1499 1513 1505 1491 1495 1500 1499 1502 1512 1522 1534 1545 1548 1527 1486 1481 1475 1476 1475 1478 1480 1482 1484 1485 1487 1487 1488 1488 1488 1486 1484 1483 1482 1483 1483 1482 1483 1485 1485 1486 1487 1490 1488 1489
1495 1515 1523 1506 1489 1492 1491 1498 1512 1532 1530 1536 1539 1525 1477 1472 1471 1471 1474 1477 1479 1481 1483 1485 1485 1485 1485 1485 1484 1483 1483 1481 1480 1478 1476 1475 1475 1476 1478 1481 1486 1486 1480 1485
1494 1518 1535 1522 1507 1495 1497 1497 1502 1516 1524 1527 1533 1516 1476 1472 1471 1471 1473 1477 1479 1481 1483 1483 1483 1483 1482 1482 1481 1480 1480 1479 1477 1474 1470 1469 1469 1469 1468 1470 1470 1467 1469 1467
1488 1513 1516 1537 1520 1507 1503 1497 1498 1506 1525 1520 1519 1498 1481 1477 1474 1472 1474 1476 1479 1480 1481 1482 1481 1481 1480 1479 1478 1477 1476 1475 1473 1470 1467 1465 1464 1464 1462 1463 1465 1468 1470 1469
1489 1508 1510 1506 1504 1502 1499 1497 1493 1499 1499 1508 1495 1499 1481 1475 1473 1471 1473 1476 1477 1478 1479 1479 1480 1481 1479 1477 1475 1473 1472 1471 1468 1465 1462 1460 1460 1460 1459 1462 1466 1466 1469 1474
1493 1506 1508 1504 1495 1498 1498 1490 1490 1489 1486 1493 1488 1489 1467 1469 1471 1472 1472 1477 1479 1478 1478 1478 1479 1479 1477 1475 1473 1471 1469 1466 1463 1461 1458 1457 1457 1458 1457 1461 1462 1464 1465 1469
1497 1508 1518 1520 1501 1501 1510 1489 1482 1479 1475 1479 1490 1472 1467 1470 1472 1473 1474 1475 1475 1476 1476 1476 1476 1475 1474 1471 1470 1467 1466 1463 1461 1458 1456 1455 1453 1455 1456 1457 1459 1462 1464 1467
1497 1503 1513 1516 1504 1523 1483 1468 1467 1471 1468 1469 1468 1463 1460 1462 1466 1469 1471 1472 1473 1473 1472 1472 1471 1470 1469 1467 1465 1464 1462 1461 1458 1455 1453 1453 1453 1454 1454 1455 1458 1461 1463 1465
1483 1500 1508 1514 1521 1502 1479 1467 1468 1471 1469 1460 1460 1460 1460 1463 1467 1467 1467 1468 1468 1468 1467 1466 1466 1466 1465 1463 1462 1460 1458 1457 1455 1453 1451 1450 1451 1452 1452 1453 1455 1459 1460 1462
1489 1490 1498 1521 1518 1518 1484 1465 1460 1459 1482 1455 1455 1457 1459 1464 1477 1464 1462 1463 1462 1463 1462 1461 1460 1460 1459 1458 1457 1456 1455 1453 1452 1450 1449 1447 1448 1449 1451 1452 1452 1455 1458 1460
1498 1502 1504 1513 1514 1496 1475 1467 1462 1482 1481 1456 1456 1457 1460 1463 1455 1456 1458 1459 1460 1460 1459 1457 1455 1455 1454 1453 1451 1451 1450 1449 1450 1448 1446 1446 1445 1446 1448 1449 1449 1451 1455 1459
1499 1505 1510 1509 1506 1501 1470 1467 1474 1468 1457 1454 1454 1455 1455 1455 1457 1457 1458 1458 1457 1455 1453 1452 1450 1449 1449 1447 1447 1446 1445 1446 1446 1445 1444 1444 1443 1445 1447 1448 1447 1449 1453 1457
1498 1492 1499 1497 1495 1475 1471 1470 1466 1463 1459 1458 1458 1457 1457 1457 1457 1457 1456 1455 1453 1451 1450 1448 1447 1445 1444 1441 1440 1440 1440 1440 1440 1440 1441 1442 1443 1444 1446 1448 1447 1448 1452 1456
1483 1482 1489 1486 1478 1473 1471 1468 1465 1462 1458 1456 1455 1455 1456 1456 1455 1454 1452 1450 1449 1447 1446 1445 1442 1439 1438 1436 1434 1433 1435 1435 1434 1436 1437 1438 1440 1441 1443 1445 1446 1448 1450 1453
1485 1483 1485 1485 1476 1471 1468 1465 1462 1460 1458 1456 1455 1454 1453 1452 1450 1449 1447 1445 1443 1440 1438 1437 1435 1433 1432 1430 1429 1428 1429 1429 1429 1431 1432 1433 1436 1438 1440 1441 1444 1445 1447 1449
1481 1483 1488 1487 1473 1469 1466 1462 1459 1456 1455 1455 1454 1452 1451 1450 1448 1446 1445 1442 1439 1436 1433 1429 1428 1427 1426 1425 1424 1424 1425 1426 1426 1424 1426 1428 1431 1434 1436 1437 1440 1441 1444 1446